Ardmore, OK

9:33 AM CDT on June 24, 2018 (GMT -0500)
Ardmore Municipal

Weather History for KADM - December, 2017

Change the Weather History Date:

Thursday, December 7, 2017

  Actual Average Record
Temperature  
Mean Temperature 30 °F -  
Max Temperature 39 °F 54 °F 71 °F (2001)
Min Temperature 20 °F 36 °F 14 °F (2013)
Degree Days  
Heating Degree Days 36    
Moisture  
Dew Point 19 °F    
Average Humidity 62    
Maximum Humidity 79    
Minimum Humidity 33    
Precipitation  
Precipitation 0.00 in - - ()
Sea Level Pressure  
Sea Level Pressure 30.39 in    
Wind  
Wind Speed 7 mph (NNW)    
Max Wind Speed 21 mph    
Max Gust Speed 29 mph    
Visibility 10 miles    
Events      
Averages and records for this station are not official NWS values.
T = Trace of Precipitation, MM = Missing Value Source: NWS Daily Summary

Daily Weather History Graph

Daily Weather History Graph

Search for Another Location

Airport or City:

Astronomy

Dec. 07, 2017 Rise Set
Actual Time 7:21 AM CST 5:18 PM CST
Civil Twilight 6:53 AM CST 5:45 PM CST
Nautical Twilight 6:22 AM CST 6:16 PM CST
Astronomical Twilight 5:51 AM CST 6:47 PM CST
Moon 10:01 PM CST (12/7) 11:05 AM CST (12/7)
Length of Visible Light 10h 52m
Length of Day
9h 56m
Waning Gibbous, 77% of the Moon is Illuminated
Dec 7
Waning Gibbous
Dec 10
Last Quarter
Dec 18
New
Dec 26
First Quarter
Jan 1
Full

Hourly Weather History & Observations

Time (CST) Temp. Windchill Dew Point Humidity Pressure Visibility Wind Dir Wind Speed Gust Speed Precip Events Conditions
12:15 AM 33.3 °F 27.9 °F 23.7 °F 68% 30.36 in 10.0 mi NNW 5.8 mph - N/A   Clear
12:35 AM 32.0 °F 27.5 °F 23.9 °F 72% 30.36 in 10.0 mi North 4.6 mph - N/A   Clear
12:55 AM 33.3 °F - 24.3 °F 70% 30.36 in 10.0 mi Calm Calm - N/A   Clear
1:15 AM 32.2 °F - 24.4 °F 73% 30.36 in 10.0 mi Calm Calm - N/A   Clear
1:35 AM 32.0 °F - 24.3 °F 73% 30.36 in 10.0 mi Calm Calm - N/A   Clear
1:55 AM 32.9 °F - 23.9 °F 69% 30.36 in 10.0 mi Calm Calm - N/A   Clear
2:15 AM 32.0 °F - 23.9 °F 72% 30.36 in 10.0 mi Calm Calm - N/A   Clear
2:35 AM 31.3 °F 27.9 °F 24.1 °F 75% 30.37 in 10.0 mi WNW 3.5 mph - N/A   Clear
2:55 AM 32.0 °F 27.5 °F 24.1 °F 73% 30.38 in 10.0 mi North 4.6 mph - N/A   Clear
3:15 AM 33.3 °F 25.7 °F 25.3 °F 73% 30.38 in 10.0 mi NNW 9.2 mph - N/A   Clear
3:35 AM 34.7 °F 25.9 °F 25.0 °F 68% 30.38 in 10.0 mi North 12.7 mph - N/A   Clear
3:55 AM 34.5 °F 25.3 °F 24.6 °F 67% 30.39 in 10.0 mi North 13.8 mph 18.4 mph N/A   Clear
4:15 AM 33.4 °F 23.9 °F 24.6 °F 70% 30.40 in 10.0 mi North 13.8 mph 18.4 mph N/A   Clear
4:35 AM 33.8 °F 25.3 °F 25.2 °F 71% 30.40 in 10.0 mi North 11.5 mph 17.3 mph N/A   Clear
4:55 AM 33.8 °F 24.8 °F 25.3 °F 71% 30.40 in 10.0 mi North 12.7 mph - N/A   Clear
5:15 AM 33.8 °F 24.8 °F 25.7 °F 72% 30.40 in 10.0 mi North 12.7 mph 17.3 mph N/A   Clear
5:35 AM 34.0 °F 23.4 °F 25.7 °F 72% 30.41 in 10.0 mi North 17.3 mph 21.9 mph N/A   Clear
5:55 AM 34.0 °F 23.8 °F 25.2 °F 70% 30.43 in 10.0 mi North 16.1 mph 21.9 mph N/A   Scattered Clouds
6:15 AM 33.6 °F 23.7 °F 24.8 °F 70% 30.44 in 10.0 mi North 15.0 mph 24.2 mph N/A   Clear
6:35 AM 33.3 °F 22.1 °F 24.8 °F 71% 30.44 in 10.0 mi North 18.4 mph 25.3 mph N/A   Clear
6:55 AM 32.0 °F 20.8 °F 24.8 °F 75% 30.44 in 10.0 mi North 17.3 mph 24.2 mph N/A   Clear
7:50 AM 32.0 °F 19.8 °F 23.0 °F 69% 30.46 in 10.0 mi North 20.7 mph 28.8 mph N/A   Clear
8:50 AM 32.0 °F 21.2 °F 19.4 °F 60% 30.48 in 10.0 mi North 16.1 mph 23.0 mph N/A   Clear
9:50 AM 32.0 °F 21.2 °F 15.8 °F 51% 30.50 in 10.0 mi North 16.1 mph 25.3 mph N/A   Clear
10:50 AM 33.8 °F 23.5 °F 15.8 °F 48% 30.51 in 10.0 mi North 16.1 mph 25.3 mph N/A   Clear
12:55 PM 39.2 °F 33.0 °F 15.8 °F 39% 30.45 in 10.0 mi NNW 9.2 mph 18.4 mph N/A   Clear
2:50 PM 39.2 °F 32.0 °F 12.2 °F 33% 30.40 in 10.0 mi NNW 11.5 mph - N/A   Clear
4:50 PM 35.6 °F 28.6 °F 14.0 °F 41% 30.37 in 10.0 mi NNW 9.2 mph - N/A   Clear
4:55 PM 36.1 °F 29.9 °F 13.1 °F 39% 30.37 in 10.0 mi North 8.1 mph - N/A   Clear
5:15 PM 35.6 °F 28.0 °F 13.1 °F 40% 30.38 in 10.0 mi North 10.4 mph - N/A   Clear
5:35 PM 33.8 °F 27.7 °F 13.8 °F 44% 30.38 in 10.0 mi North 6.9 mph - N/A   Clear
5:50 PM 33.8 °F 25.3 °F 14.0 °F 44% 30.37 in 10.0 mi NNW 11.5 mph - N/A   Clear
5:55 PM 32.9 °F 27.5 °F 14.0 °F 46% 30.37 in 10.0 mi North 5.8 mph - N/A   Clear
6:15 PM 32.2 °F 26.7 °F 14.0 °F 47% 30.37 in 10.0 mi North 5.8 mph - N/A   Clear
6:35 PM 31.3 °F 25.6 °F 14.4 °F 50% 30.37 in 10.0 mi North 5.8 mph - N/A   Clear
6:55 PM 31.1 °F 26.4 °F 14.2 °F 50% 30.37 in 10.0 mi NNW 4.6 mph - N/A   Clear
7:15 PM 27.7 °F 21.3 °F 13.8 °F 56% 30.39 in 10.0 mi WNW 5.8 mph - N/A   Clear
7:35 PM 27.5 °F 21.1 °F 14.0 °F 57% 30.39 in 10.0 mi WNW 5.8 mph - N/A   Clear
7:55 PM 29.1 °F - 14.7 °F 55% 30.39 in 10.0 mi Calm Calm - N/A   Clear
7:56 PM 28.4 °F 24.6 °F 14.0 °F 55% 30.39 in 10.0 mi NW 3.5 mph - N/A   Clear
8:20 PM 27.3 °F 23.4 °F 14.5 °F 59% 30.38 in 10.0 mi NNW 3.5 mph - N/A   Clear
8:35 PM 28.4 °F 24.6 °F 16.0 °F 60% 30.37 in 10.0 mi NNW 3.5 mph - N/A   Clear
8:55 PM 27.3 °F - 15.4 °F 61% 30.37 in 10.0 mi Calm Calm - N/A   Clear
8:56 PM 26.6 °F - 15.8 °F 64% 30.38 in 10.0 mi Calm Calm - N/A   Clear
9:15 PM 24.3 °F - 14.2 °F 65% 30.37 in 10.0 mi Calm Calm - N/A   Clear
9:35 PM 24.8 °F - 14.9 °F 66% 30.37 in 10.0 mi Calm Calm - N/A   Clear
9:50 PM 23.0 °F - 14.0 °F 68% 30.38 in 10.0 mi Calm Calm - N/A   Clear
9:55 PM 23.9 °F 19.5 °F 14.9 °F 69% 30.38 in 10.0 mi North 3.5 mph - N/A   Clear
10:20 PM 23.5 °F - 14.7 °F 69% 30.37 in 10.0 mi Calm Calm - N/A   Clear
10:35 PM 24.4 °F - 15.1 °F 68% 30.37 in 10.0 mi Calm Calm - N/A   Clear
10:55 PM 24.4 °F - 16.5 °F 72% 30.36 in 10.0 mi Calm Calm - N/A   Clear
11:15 PM 20.7 °F 15.8 °F 14.9 °F 78% 30.36 in 10.0 mi SW 3.5 mph - N/A   Clear
11:35 PM 20.5 °F - 14.9 °F 79% 30.36 in 10.0 mi Calm Calm - N/A   Clear
11:55 PM 20.5 °F - 14.0 °F 76% 30.35 in 10.0 mi Calm Calm - N/A   Clear